[Iaude] MPEC R13: 2017 QL35 [a=2.63,e=0.52,i=11.9,H=20.5]

mpec at mpcdb1.cfa.harvard.edu mpec at mpcdb1.cfa.harvard.edu
Sat Sep 2 17:57:17 EDT 2017


M.P.E.C. 2017-R13                                Issued 2017 Sept. 2, 21:54 UT
 
     The Minor Planet Electronic Circulars contain information on unusual
         minor planets and routine data on comets.  They are published
    on behalf of Division F of the International Astronomical Union by the
          Minor Planet Center, Smithsonian Astrophysical Observatory,
                          Cambridge, MA 02138, U.S.A.

             Prepared using the Tamkin Foundation Computer Network

                              MPC at CFA.HARVARD.EDU
            URL http://www.minorplanetcenter.net/    ISSN 1523-6714


                                   2017 QL35
 
Observations:
     K17Q35L* C2017 08 31.22688 21 00 07.08 +19 07 19.7          19.6 VqER013G96
     K17Q35L  C2017 08 31.23108 21 00 07.48 +19 07 14.9          19.6 VqER013G96
     K17Q35L  C2017 08 31.23529 21 00 07.86 +19 07 10.4          19.8 VqER013G96
     K17Q35L  C2017 08 31.23951 21 00 08.25 +19 07 05.3          19.6 VqER013G96
     K17Q35L  C2017 08 31.26769521 00 10.69 +19 06 32.6          19.2 GUER013H01
     K17Q35L  C2017 08 31.27458021 00 11.31 +19 06 24.8          19.3 GUER013H01
     K17Q35L  C2017 08 31.28746921 00 12.49 +19 06 10.1          19.3 GUER013H01
     K17Q35L  C2017 08 31.29178021 00 12.88 +19 06 05.1          19.3 GUER013H01
     K17Q35L KC2017 08 31.29472721 00 12.74 +19 05 57.8          19.6 VuER013H21
     K17Q35L KC2017 08 31.29927221 00 13.17 +19 05 52.6          19.5 VuER013H21
     K17Q35L KC2017 08 31.30459921 00 13.67 +19 05 46.2          19.6 VuER013H21
     K17Q35L  C2017 08 31.35913 21 00 19.10 +19 04 48.7                qER013I52
     K17Q35L  C2017 08 31.36183 21 00 19.40 +19 04 45.4                qER013I52
     K17Q35L  C2017 08 31.36724 21 00 19.91 +19 04 38.7          21.0 VqER013I52
     K17Q35L KC2017 08 31.84990 21 01 10.78 +18 55 20.5          19.4 RoER013K88
     K17Q35L KC2017 08 31.85636 21 01 11.39 +18 55 13.4          19.1 RoER013K88
     K17Q35L KC2017 08 31.85959 21 01 11.67 +18 55 09.4          19.2 RoER013K88
     K17Q35L KC2017 08 31.88457 21 01 14.57 +18 54 38.3                UER013J95
     K17Q35L KC2017 08 31.88763 21 01 14.81 +18 54 34.9                UER013J95
     K17Q35L KC2017 08 31.89072 21 01 15.14 +18 54 31.3          19.4 GUER013J95
     K17Q35L  C2017 08 31.90101 21 01 16.08 +18 54 24.2          19.4 RqER013B74
     K17Q35L  C2017 08 31.90873 21 01 16.82 +18 54 15.0          19.5 RqER013B74
     K17Q35L  C2017 08 31.91630 21 01 17.55 +18 54 05.9          19.5 RqER013B74
     K17Q35L  C2017 09 01.13938 21 01 41.62 +18 49 47.7          19.5 VqER013G96
     K17Q35L  C2017 09 01.14267 21 01 41.92 +18 49 43.8          19.4 VqER013G96
     K17Q35L  C2017 09 01.14619 21 01 42.27 +18 49 39.8          19.4 VqER013G96
     K17Q35L  C2017 09 01.14963 21 01 42.60 +18 49 35.9          19.5 VqER013G96
     K17Q35L KC2017 09 01.53928 21 02 22.95 +18 41 51.4          19.6 RrER013P93
     K17Q35L KC2017 09 01.54413 21 02 23.42 +18 41 45.8          19.8 RrER013P93
     K17Q35L KC2017 09 01.54897 21 02 23.92 +18 41 39.9          20.0 RrER013P93
     K17Q35L KC2017 09 01.55382 21 02 24.35 +18 41 34.6          19.6 RrER013P93
     K17Q35L IC2017 09 01.85542 21 02 56.99 +18 35 19.9                UER013J95
     K17Q35L IC2017 09 01.85777 21 02 57.20 +18 35 16.4                UER013J95
     K17Q35L KC2017 09 01.86001 21 02 57.47 +18 35 14.0          19.2 GUER013J95
     K17Q35L  C2017 09 02.13622 21 03 27.69 +18 29 41.8          19.1 VqER013G96
     K17Q35L  C2017 09 02.14025 21 03 28.07 +18 29 37.2          19.0 VqER013G96
     K17Q35L  C2017 09 02.14433 21 03 28.48 +18 29 32.6          19.6 VqER013G96
 
Observer details:
B74 Santa Maria de Montmagastrell.  Observer J. M. Bosch.  0.40-m f/10
    Schmidt-Cassegrain + CCD.
G96 Mt. Lemmon Survey.  Observers R. G. Matheny, J. A. Johnson.  Measurers
    E. J. Christensen, D. C. Fuls, A. R. Gibbs, A. D. Grauer, J. A. Johnson,
    R. A. Kowalski, S. M. Larson, G. J. Leonard, R. G. Matheny, R. L. Seaman,
    F. C. Shelly.  1.5-m reflector + 10K CCD.
H01 Magdalena Ridge Observatory, Socorro.  Observers W. H. Ryan, E. V. Ryan.
    Measurer W. H. Ryan.  2.4-m f/8.9 reflector + CCD.
H21 Astronomical Research Observatory, Westfield.  Observer R. Holmes.
    Measurers S. Foglia, L. Buzzi, T. Linder, R. Holmes.  0.61-m f/4.5
    astrograph + CCD.
I52 Steward Observatory, Mt. Lemmon Station.  Observer R. A. Kowalski.
    Measurers E. J. Christensen, D. C. Fuls, A. R. Gibbs, A. D. Grauer,
    J. A. Johnson, R. A. Kowalski, S. M. Larson, G. J. Leonard, R. G. Matheny,
    R. L. Seaman, F. C. Shelly.  1.0-m reflector + CCD.
J95 Great Shefford.  Observer P. Birtwhistle.  0.40-m f/6.0 Schmidt-Cassegrain
    + CCD.
K88 GINOP-KHK, Piszkesteto.  Observer K. Sarneczky.  0.60-m Schmidt + CCD.
P93 Space Tracking and Communications Center, JAXA.  Observers T. Nimura,
    T. Fujiwara.  1.0-m f/3.0 reflector + CCD.
 
Orbital elements:
2017 QL35                                                Earth MOID = 0.2659 AU
Epoch 2017 Sept. 4.0 TT = JDT 2458000.5                 MPC
M 356.89172              (2000.0)            P               Q
n   0.23128319     Peri.  153.13720     +0.97962180     +0.19253028
a   2.6284921      Node   196.07340     -0.20029530     +0.95761496
e   0.5225159      Incl.   11.92549     +0.01493032     +0.21425610
P   4.26           H   20.5           G   0.15           U   8
Residuals in seconds of arc
170831 G96  0.4-  0.0     170831 I52  0.4-  0.3-    170901 G96  0.3-  0.2+
170831 G96  0.1-  0.1-    170831 K88  0.2-  0.0     170901 P93  0.4+  0.1-
170831 G96  0.1-  0.1+    170831 K88  0.3-  0.3+    170901 P93  0.5+  0.1+
170831 G96  0.0   0.2-    170831 K88  0.6-  0.1+    170901 P93  1.0+  0.0
170831 H01  0.1-  0.3-    170831 J95  0.2+  0.2-    170901 P93  0.5+  0.6+
170831 H01  0.1-  0.2-    170831 J95  0.5-  0.1-    170901 J95  0.3-  0.1+
170831 H01  0.1-  0.2-    170831 J95  0.0   0.1-    170901 J95  0.7-  0.5-
170831 H01  0.1-  0.3-    170831 B74  0.5-  0.3+    170901 J95  0.1-  0.2-
170831 H21  0.4-  0.3-    170831 B74  0.3-  0.1+    170902 G96  0.1-  0.3-
170831 H21  0.3-  0.3-    170831 B74  0.1-  0.2-    170902 G96  0.4-  0.0
170831 H21  0.4-  0.5-    170901 G96  0.3-  0.2+    170902 G96  0.3-  0.3+
170831 I52  1.2-  0.2+    170901 G96  0.5-  0.1+
170831 I52  0.5-  0.1+    170901 G96  0.3-  0.1+

Ephemeris:
2017 QL35                a,e,i = 2.63, 0.52, 12                  q = 1.2551
Date    TT    R. A. (2000) Decl.     Delta      r     Elong.  Phase     V
2017 08 03    20 33 23.6 +21 23 07   0.4021  1.3503   140.8    28.4    20.4
...
2017 08 18    20 43 09.1 +21 45 23   0.3440  1.2993   141.5    29.0    20.0
...
2017 08 26    20 52 11.5 +20 31 19   0.3203  1.2794   142.4    28.8    19.8
...
2017 09 01    21 01 26.0 +18 52 40   0.3062  1.2682   143.4    28.3    19.7
2017 09 02    21 03 11.9 +18 32 40   0.3041  1.2667   143.6    28.2    19.7
2017 09 03    21 05 01.6 +18 11 39   0.3022  1.2652   143.8    28.1    19.7
...
2017 09 09    21 17 21.3 +15 45 28   0.2928  1.2586   145.1    27.3    19.6
...
2017 09 17    21 37 11.8 +11 44 00   0.2869  1.2551   146.8    26.0    19.5
...
2017 10 02    22 22 13.7 +03 10 17   0.3011  1.2654   147.6    25.1    19.6

A. U. Tomatic                (C) Copyright 2017 MPC           M.P.E.C. 2017-R13




More information about the Iaude mailing list